UAE309 ZBAA-OMDB

Flight info

Callsign UAE309
Flight time N/A
Altitude 34100
Route IDKEX5Y IDKEX B339 ASILA A575 UPREK W28 LAGEB W66 NUKTI B215 IBANO W187 TUSLI W112 PURPA/N0489F341 G325 BIVIN R462 VUSET A454 PASOV B540 MIVEK P574 IMPED
Aircraft B77W/H-SDE1E2E3FGHIJ2J3J4J5M1RWXY/LB1D1

Departure

Time N/A
Airport Beijing Capital International Airport (ZBAA)

Arrival

Time 2026-04-20 16:17
Airport Dubai International Airport (OMDB)
Time Latitude Longitude Altitude Speed Heading
2026-04-20 12:09 37.43164 81.74163 35914 ft 420 kts 258°
2026-04-20 12:09 37.42447 81.70610 35906 ft 419 kts 258°
2026-04-20 12:09 37.41015 81.63539 35926 ft 416 kts 258°
2026-04-20 12:10 37.39583 81.56491 35941 ft 416 kts 258°
2026-04-20 12:10 37.38148 81.49444 35952 ft 416 kts 258°
2026-04-20 12:11 37.36707 81.42388 35946 ft 417 kts 258°
2026-04-20 12:11 37.35258 81.35320 35947 ft 418 kts 258°
2026-04-20 12:12 37.33802 81.28245 35938 ft 418 kts 258°
2026-04-20 12:12 37.32340 81.21163 35948 ft 419 kts 258°
2026-04-20 12:13 37.30873 81.14079 35943 ft 419 kts 258°
2026-04-20 12:13 37.29400 81.06988 35944 ft 420 kts 258°
2026-04-20 12:14 37.27921 80.99891 35942 ft 420 kts 258°
2026-04-20 12:14 37.26438 80.92802 35947 ft 420 kts 258°
2026-04-20 12:15 37.24950 80.85710 35946 ft 420 kts 258°
2026-04-20 12:15 37.23457 80.78614 35946 ft 421 kts 258°
2026-04-20 12:16 37.21958 80.71515 35943 ft 421 kts 258°
2026-04-20 12:16 37.20452 80.64405 35941 ft 422 kts 258°
2026-04-20 12:17 37.18951 80.57341 35942 ft 422 kts 258°
2026-04-20 12:17 37.17434 80.50228 35933 ft 422 kts 258°
2026-04-20 12:18 37.15912 80.43113 35942 ft 423 kts 258°
2026-04-20 12:18 37.14383 80.35981 35948 ft 424 kts 258°
2026-04-20 12:19 37.12846 80.28841 35945 ft 425 kts 258°
2026-04-20 12:19 37.11303 80.21697 35959 ft 425 kts 258°
2026-04-20 12:20 37.09755 80.14548 35933 ft 426 kts 258°
2026-04-20 12:20 37.08198 80.07385 35954 ft 427 kts 258°
2026-04-20 12:21 37.06634 80.00201 35966 ft 428 kts 258°
2026-04-20 12:21 37.05060 79.93001 35967 ft 429 kts 258°
2026-04-20 12:22 37.03904 79.85713 35961 ft 426 kts 266°
2026-04-20 12:22 37.03624 79.78331 35967 ft 425 kts 272°
2026-04-20 12:23 37.03618 79.70926 35973 ft 426 kts 272°
2026-04-20 12:23 37.03604 79.63504 35971 ft 427 kts 272°
2026-04-20 12:24 37.03574 79.56067 35974 ft 428 kts 272°
2026-04-20 12:24 37.03535 79.48619 35975 ft 428 kts 272°
2026-04-20 12:25 37.03489 79.41220 35959 ft 428 kts 272°
2026-04-20 12:25 37.03439 79.33771 35989 ft 428 kts 272°
2026-04-20 12:26 37.03385 79.26307 35992 ft 429 kts 272°
2026-04-20 12:26 37.03325 79.18836 35983 ft 429 kts 272°
2026-04-20 12:27 37.03261 79.11355 35991 ft 430 kts 272°
2026-04-20 12:27 37.03192 79.03865 35974 ft 431 kts 272°
2026-04-20 12:28 37.03119 78.96359 36005 ft 432 kts 272°
2026-04-20 12:28 37.03040 78.88834 36002 ft 433 kts 271°
2026-04-20 12:29 37.02955 78.81306 36026 ft 433 kts 272°
2026-04-20 12:29 37.02868 78.73767 36019 ft 434 kts 271°
2026-04-20 12:30 37.02791 78.67489 36001 ft 434 kts 271°
2026-04-20 12:30 37.02693 78.59929 36022 ft 435 kts 271°
2026-04-20 12:31 37.02591 78.52356 36017 ft 436 kts 271°
2026-04-20 12:31 37.02483 78.44763 36004 ft 437 kts 271°
2026-04-20 12:32 37.02368 78.37167 36024 ft 437 kts 271°
2026-04-20 12:32 37.02253 78.29544 36018 ft 439 kts 271°
2026-04-20 12:33 37.02135 78.21918 36034 ft 437 kts 271°
2026-04-20 12:33 37.02005 78.14333 36044 ft 436 kts 271°
2026-04-20 12:34 37.01870 78.06753 36050 ft 435 kts 271°
2026-04-20 12:34 37.01734 77.99171 36041 ft 436 kts 271°
2026-04-20 12:35 37.01593 77.91590 36066 ft 434 kts 271°
2026-04-20 12:35 37.01450 77.84037 36074 ft 433 kts 271°
2026-04-20 12:36 37.01299 77.76516 36061 ft 437 kts 271°
2026-04-20 12:36 37.01139 77.68865 36053 ft 437 kts 271°
2026-04-20 12:37 37.00981 77.61292 36055 ft 440 kts 271°
2026-04-20 12:37 37.00815 77.53630 36051 ft 441 kts 271°
2026-04-20 12:38 37.00642 77.45939 36049 ft 442 kts 271°
2026-04-20 12:38 37.00465 77.38242 35998 ft 442 kts 271°
2026-04-20 12:39 37.00188 77.26708 36052 ft 443 kts 271°
2026-04-20 12:40 36.99990 77.18991 36023 ft 445 kts 271°
2026-04-20 12:40 36.99800 77.11237 36038 ft 447 kts 271°
2026-04-20 12:41 36.99600 77.03467 36031 ft 447 kts 270°
2026-04-20 12:41 36.99392 76.95695 36064 ft 448 kts 270°
2026-04-20 12:42 36.99182 76.87926 36037 ft 446 kts 271°
2026-04-20 12:42 36.98964 76.80177 36022 ft 445 kts 271°
2026-04-20 12:43 36.98741 76.72453 36035 ft 445 kts 270°
2026-04-20 12:43 36.98511 76.64708 36020 ft 446 kts 271°
2026-04-20 12:44 36.98280 76.56959 36035 ft 446 kts 270°
2026-04-20 12:44 36.98035 76.49151 35985 ft 451 kts 270°
2026-04-20 12:45 36.97796 76.41428 36010 ft 440 kts 270°
2026-04-20 12:45 36.97559 76.33759 36012 ft 442 kts 270°
2026-04-20 12:46 36.97310 76.26071 36029 ft 443 kts 270°
2026-04-20 12:46 36.97052 76.18368 36004 ft 443 kts 270°
2026-04-20 12:47 36.96793 76.10754 36044 ft 440 kts 270°
2026-04-20 12:47 36.96528 76.03084 36052 ft 444 kts 270°
2026-04-20 12:48 36.96258 75.95333 36030 ft 449 kts 270°
2026-04-20 12:48 36.95979 75.87554 36103 ft 447 kts 270°
2026-04-20 12:49 36.95695 75.79757 36069 ft 450 kts 270°
2026-04-20 12:49 36.95404 75.71965 36079 ft 447 kts 270°
2026-04-20 12:50 36.95112 75.64233 36090 ft 444 kts 270°
2026-04-20 12:50 36.94820 75.56551 36127 ft 442 kts 270°
2026-04-20 12:51 36.94520 75.48896 36127 ft 440 kts 270°
2026-04-20 12:51 36.93142 75.41482 36130 ft 452 kts 249°
2026-04-20 12:51 36.91484 75.38110 36152 ft 460 kts 237°
2026-04-20 12:52 36.89255 75.35198 36187 ft 469 kts 226°
2026-04-20 12:52 36.84208 75.29971 36192 ft 474 kts 225°
2026-04-20 12:53 36.79123 75.24704 36173 ft 475 kts 226°
2026-04-20 12:53 36.74112 75.19434 36187 ft 467 kts 227°
2026-04-20 12:54 36.69223 75.14261 36172 ft 463 kts 226°
2026-04-20 12:54 36.64271 75.09012 36186 ft 472 kts 226°
2026-04-20 12:55 36.59276 75.03716 36160 ft 470 kts 226°
2026-04-20 12:55 36.54359 74.98526 36209 ft 460 kts 227°
2026-04-20 12:56 36.49445 74.93350 36297 ft 464 kts 227°
2026-04-20 12:56 36.47004 74.90675 36144 ft 472 kts 226°
2026-04-20 12:56 36.44498 74.88025 36201 ft 475 kts 226°
2026-04-20 12:57 36.39458 74.82832 36211 ft 467 kts 225°
2026-04-20 12:57 36.34490 74.77688 36211 ft 464 kts 226°
2026-04-20 12:58 36.29681 74.72464 36274 ft 459 kts 226°
2026-04-20 12:58 36.24695 74.67312 36217 ft 472 kts 225°
2026-04-20 12:59 36.19616 74.62122 36170 ft 472 kts 225°
2026-04-20 12:59 36.14598 74.56929 36144 ft 469 kts 226°
2026-04-20 13:00 36.09615 74.51733 36148 ft 469 kts 226°
2026-04-20 13:00 36.04617 74.46550 36109 ft 469 kts 225°
2026-04-20 13:01 35.99632 74.41368 36052 ft 466 kts 226°
2026-04-20 13:01 35.94677 74.36275 36050 ft 463 kts 225°
2026-04-20 13:02 35.90075 74.30764 36046 ft 461 kts 235°
2026-04-20 13:02 35.86030 74.24574 36022 ft 465 kts 236°
2026-04-20 13:03 35.81972 74.18396 36057 ft 464 kts 235°
2026-04-20 13:03 35.77892 74.12242 36036 ft 464 kts 235°
2026-04-20 13:04 35.73804 74.06099 36031 ft 464 kts 235°
2026-04-20 13:04 35.69716 73.99974 36004 ft 461 kts 235°
2026-04-20 13:05 35.65671 73.93923 35982 ft 461 kts 235°
2026-04-20 13:05 35.61597 73.87843 36014 ft 461 kts 235°
2026-04-20 13:06 35.57518 73.81754 36023 ft 462 kts 235°
2026-04-20 13:06 35.53436 73.75668 36038 ft 460 kts 235°
2026-04-20 13:07 35.49347 73.69600 36028 ft 462 kts 234°
2026-04-20 13:07 35.45253 73.63525 36045 ft 464 kts 235°
2026-04-20 13:08 35.41126 73.57413 36072 ft 466 kts 235°
2026-04-20 13:08 35.36981 73.51288 36074 ft 467 kts 235°
2026-04-20 13:09 35.32826 73.45153 36072 ft 467 kts 235°
2026-04-20 13:09 35.28682 73.39053 36119 ft 465 kts 234°
2026-04-20 13:10 35.24539 73.32964 36091 ft 466 kts 234°
2026-04-20 13:10 35.20397 73.26884 36080 ft 465 kts 234°
2026-04-20 13:11 35.16250 73.20811 36100 ft 465 kts 234°
2026-04-20 13:11 35.12100 73.14740 36070 ft 465 kts 234°
2026-04-20 13:12 35.07952 73.08681 36108 ft 466 kts 234°
2026-04-20 13:12 35.03778 73.02609 36005 ft 470 kts 234°
2026-04-20 13:13 34.99585 72.96487 36010 ft 465 kts 234°
2026-04-20 13:13 34.95445 72.90483 36029 ft 461 kts 234°
2026-04-20 13:14 34.91316 72.84487 36024 ft 464 kts 234°
2026-04-20 13:14 34.87147 72.78463 35976 ft 465 kts 234°
2026-04-20 13:15 34.82999 72.72483 35969 ft 465 kts 234°
2026-04-20 13:15 34.78828 72.66475 35937 ft 465 kts 234°
2026-04-20 13:16 34.74658 72.60474 35885 ft 464 kts 234°
2026-04-20 13:16 34.70491 72.54492 35885 ft 464 kts 234°
2026-04-20 13:17 34.66322 72.48510 35893 ft 468 kts 233°
2026-04-20 13:17 34.62089 72.42459 35914 ft 470 kts 234°
2026-04-20 13:18 34.57868 72.36423 35880 ft 468 kts 234°
2026-04-20 13:18 34.53655 72.30416 35881 ft 468 kts 233°
2026-04-20 13:19 34.50115 72.25382 35855 ft 468 kts 233°
2026-04-20 13:19 34.45891 72.19379 35876 ft 468 kts 233°
2026-04-20 13:20 34.41690 72.13409 35836 ft 469 kts 233°
2026-04-20 13:20 34.37455 72.07407 35836 ft 469 kts 233°
2026-04-20 13:21 34.33218 72.01415 35836 ft 468 kts 233°
2026-04-20 13:21 34.28984 71.95436 35821 ft 468 kts 233°
2026-04-20 13:22 34.24748 71.89466 35816 ft 468 kts 234°
2026-04-20 13:22 34.20514 71.83506 35826 ft 467 kts 233°
2026-04-20 13:23 34.16276 71.77551 35833 ft 467 kts 233°
2026-04-20 13:23 34.12036 71.71603 35844 ft 467 kts 233°
2026-04-20 13:24 34.07792 71.65659 35848 ft 467 kts 233°
2026-04-20 13:24 34.03547 71.59722 35859 ft 467 kts 233°
2026-04-20 13:25 33.99296 71.53789 35845 ft 468 kts 233°
2026-04-20 13:25 33.94635 71.48256 35858 ft 474 kts 225°
2026-04-20 13:26 33.89617 71.43090 35859 ft 475 kts 225°
2026-04-20 13:26 33.84597 71.37911 35861 ft 476 kts 225°
2026-04-20 13:27 33.79614 71.32733 35846 ft 477 kts 225°
2026-04-20 13:27 33.74600 71.27513 35894 ft 478 kts 226°
2026-04-20 13:28 33.69525 71.22242 35868 ft 479 kts 225°
2026-04-20 13:28 33.64526 71.17062 35872 ft 477 kts 225°
2026-04-20 13:29 33.59504 71.11862 35883 ft 476 kts 225°
2026-04-20 13:29 33.54501 71.06690 35875 ft 474 kts 225°
2026-04-20 13:30 33.49492 71.01541 35879 ft 475 kts 224°
2026-04-20 13:30 33.44005 70.97034 35875 ft 481 kts 216°
2026-04-20 13:31 33.38299 70.92845 35877 ft 482 kts 216°
2026-04-20 13:31 33.32588 70.88627 35863 ft 483 kts 217°
2026-04-20 13:32 33.26886 70.84382 35855 ft 483 kts 217°
2026-04-20 13:32 33.21177 70.80125 35832 ft 485 kts 217°
2026-04-20 13:33 33.15448 70.75864 35835 ft 485 kts 216°
2026-04-20 13:33 33.09717 70.71608 35818 ft 486 kts 216°
2026-04-20 13:34 33.03979 70.67355 35832 ft 486 kts 216°
2026-04-20 13:34 32.98239 70.63105 35816 ft 486 kts 216°
2026-04-20 13:35 32.92505 70.58862 35809 ft 485 kts 217°
2026-04-20 13:35 32.86822 70.54543 35818 ft 484 kts 217°
2026-04-20 13:36 32.81155 70.50197 35815 ft 485 kts 218°
2026-04-20 13:36 32.75468 70.45859 35828 ft 486 kts 217°
2026-04-20 13:37 32.69765 70.41527 35827 ft 487 kts 217°
2026-04-20 13:37 32.64050 70.37192 35830 ft 488 kts 217°
2026-04-20 13:38 32.58230 70.33007 35839 ft 490 kts 214°
2026-04-20 13:38 32.52329 70.28960 35834 ft 490 kts 214°
2026-04-20 13:39 32.46482 70.24911 35838 ft 490 kts 215°
2026-04-20 13:39 32.40600 70.20808 35818 ft 491 kts 215°
2026-04-20 13:40 32.34710 70.16691 35841 ft 493 kts 217°
2026-04-20 13:40 32.28842 70.12470 35829 ft 495 kts 217°
2026-04-20 13:41 32.22966 70.08204 35845 ft 497 kts 217°
2026-04-20 13:41 32.17058 70.03935 35842 ft 498 kts 217°
2026-04-20 13:42 32.11144 69.99683 35852 ft 498 kts 217°
2026-04-20 13:42 32.02279 69.93336 35839 ft 496 kts 216°
2026-04-20 13:43 31.96386 69.89122 35857 ft 495 kts 216°
2026-04-20 13:43 31.90496 69.84913 35840 ft 496 kts 217°
2026-04-20 13:44 31.84593 69.80693 35864 ft 497 kts 217°
2026-04-20 13:44 31.78657 69.76476 35867 ft 500 kts 217°
2026-04-20 13:45 31.72692 69.72237 35859 ft 502 kts 217°
2026-04-20 13:45 31.66701 69.67982 35861 ft 504 kts 217°
2026-04-20 13:46 31.60697 69.63725 35864 ft 504 kts 217°
2026-04-20 13:46 31.54688 69.59473 35846 ft 504 kts 217°
2026-04-20 13:47 31.48685 69.55232 35857 ft 503 kts 217°
2026-04-20 13:47 31.42730 69.51025 35846 ft 503 kts 217°
2026-04-20 13:48 31.36843 69.46620 35864 ft 499 kts 224°
2026-04-20 13:48 31.31730 69.41241 35875 ft 491 kts 234°
2026-04-20 13:49 31.27150 69.35319 35874 ft 492 kts 235°
2026-04-20 13:49 31.22544 69.29378 35870 ft 494 kts 234°
2026-04-20 13:50 31.17905 69.23454 35854 ft 495 kts 234°
2026-04-20 13:50 31.13244 69.17541 35849 ft 495 kts 234°
2026-04-20 13:51 31.08581 69.11632 35868 ft 495 kts 235°
2026-04-20 13:51 31.03911 69.05719 35871 ft 496 kts 234°
2026-04-20 13:52 30.99236 68.99814 35881 ft 496 kts 234°
2026-04-20 13:52 30.94557 68.93908 35875 ft 495 kts 234°
2026-04-20 13:53 30.89880 68.88015 35870 ft 495 kts 234°
2026-04-20 13:53 30.85200 68.82128 35872 ft 496 kts 235°
2026-04-20 13:54 30.80515 68.76243 35853 ft 496 kts 234°
2026-04-20 13:54 30.75827 68.70364 35871 ft 496 kts 234°
2026-04-20 13:55 30.71136 68.64489 35869 ft 496 kts 234°
2026-04-20 13:55 30.66439 68.58616 35878 ft 496 kts 234°
2026-04-20 13:56 30.61768 68.52784 35864 ft 497 kts 234°
2026-04-20 13:56 30.57070 68.46928 35871 ft 495 kts 234°
2026-04-20 13:57 30.52382 68.41097 35897 ft 493 kts 234°
2026-04-20 13:57 30.47705 68.35282 35870 ft 493 kts 234°
2026-04-20 13:58 30.43035 68.29486 35908 ft 492 kts 234°
2026-04-20 13:58 30.38363 68.23696 35898 ft 492 kts 234°
2026-04-20 13:59 30.33688 68.17911 35903 ft 492 kts 234°
2026-04-20 13:59 30.29006 68.12125 35912 ft 492 kts 234°
2026-04-20 14:00 30.24313 68.06353 35882 ft 493 kts 233°
2026-04-20 14:00 30.19585 68.00597 35886 ft 494 kts 233°
2026-04-20 14:01 30.14851 67.94839 35862 ft 494 kts 233°
2026-04-20 14:01 30.10115 67.89078 35859 ft 495 kts 233°
2026-04-20 14:02 30.05390 67.83289 35857 ft 495 kts 234°
2026-04-20 14:02 30.00697 67.77459 35810 ft 496 kts 234°
2026-04-20 14:03 29.96004 67.71637 35805 ft 495 kts 234°
2026-04-20 14:03 29.91307 67.65832 35806 ft 495 kts 234°
2026-04-20 14:04 29.86612 67.60043 35790 ft 494 kts 234°
2026-04-20 14:04 29.81920 67.54265 35784 ft 493 kts 234°
2026-04-20 14:05 29.77235 67.48499 35803 ft 493 kts 234°
2026-04-20 14:05 29.72538 67.42729 35799 ft 495 kts 234°
2026-04-20 14:06 29.67866 67.36979 35836 ft 496 kts 234°
2026-04-20 14:06 29.63144 67.31166 35833 ft 498 kts 234°
2026-04-20 14:07 29.58406 67.25347 35870 ft 499 kts 234°
2026-04-20 14:07 29.53667 67.19538 35870 ft 498 kts 234°
2026-04-20 14:08 29.49703 67.14683 35915 ft 498 kts 234°
2026-04-20 14:08 29.44962 67.08883 35914 ft 499 kts 234°
2026-04-20 14:09 29.40211 67.03081 35913 ft 499 kts 234°
2026-04-20 14:09 29.35456 66.97281 35926 ft 499 kts 234°
2026-04-20 14:10 29.30707 66.91498 35947 ft 498 kts 234°
2026-04-20 14:10 29.25950 66.85716 35960 ft 498 kts 233°
2026-04-20 14:11 29.21198 66.79946 35960 ft 498 kts 233°
2026-04-20 14:11 29.16445 66.74181 35965 ft 498 kts 233°
2026-04-20 14:12 29.11691 66.68423 35957 ft 497 kts 233°
2026-04-20 14:12 29.06945 66.62683 35956 ft 496 kts 233°
2026-04-20 14:13 29.02204 66.56960 35950 ft 496 kts 233°
2026-04-20 14:13 28.97479 66.51249 35956 ft 494 kts 233°
2026-04-20 14:14 28.92767 66.45557 35948 ft 492 kts 233°
2026-04-20 14:14 28.88068 66.39886 35953 ft 491 kts 233°
2026-04-20 14:15 28.83402 66.34264 35946 ft 491 kts 233°
2026-04-20 14:15 28.78705 66.28611 35944 ft 491 kts 233°
2026-04-20 14:16 28.74002 66.22960 35922 ft 491 kts 232°
2026-04-20 14:16 28.69295 66.17312 35932 ft 491 kts 232°
2026-04-20 14:17 28.64583 66.11668 35909 ft 492 kts 232°
2026-04-20 14:17 28.59868 66.06027 35912 ft 492 kts 232°
2026-04-20 14:18 28.55146 66.00387 35907 ft 493 kts 232°
2026-04-20 14:18 28.50420 65.94748 35879 ft 492 kts 232°
2026-04-20 14:19 28.45695 65.89117 35880 ft 492 kts 231°
2026-04-20 14:19 28.40974 65.83501 35845 ft 491 kts 231°
2026-04-20 14:20 28.36248 65.77885 35860 ft 492 kts 231°
2026-04-20 14:20 28.31511 65.72265 35840 ft 493 kts 231°
2026-04-20 14:21 28.26761 65.66637 35840 ft 494 kts 231°
2026-04-20 14:21 28.22000 65.61002 35822 ft 494 kts 231°
2026-04-20 14:22 28.17248 65.55388 35825 ft 493 kts 231°
2026-04-20 14:22 28.12545 65.49838 35819 ft 490 kts 231°
2026-04-20 14:23 28.07828 65.44278 35809 ft 489 kts 230°
2026-04-20 14:23 28.03120 65.38736 35825 ft 488 kts 230°
2026-04-20 14:24 27.98406 65.33193 35824 ft 489 kts 230°
2026-04-20 14:24 27.93682 65.27644 35834 ft 490 kts 230°
2026-04-20 14:25 27.88952 65.22094 35808 ft 491 kts 230°
2026-04-20 14:25 27.84211 65.16538 35823 ft 491 kts 230°
2026-04-20 14:26 27.79464 65.10984 35839 ft 491 kts 230°
2026-04-20 14:26 27.74712 65.05431 35826 ft 492 kts 230°
2026-04-20 14:27 27.69986 64.99915 35825 ft 493 kts 230°
2026-04-20 14:27 27.65210 64.94348 35830 ft 494 kts 229°
2026-04-20 14:28 27.60419 64.88771 35833 ft 495 kts 229°
2026-04-20 14:28 27.55622 64.83197 35835 ft 495 kts 229°
2026-04-20 14:29 27.50820 64.77623 35845 ft 496 kts 229°
2026-04-20 14:29 27.46014 64.72052 35843 ft 496 kts 229°
2026-04-20 14:30 27.41209 64.66490 35834 ft 495 kts 229°
2026-04-20 14:30 27.36412 64.60943 35839 ft 494 kts 229°
2026-04-20 14:31 27.31616 64.55405 35848 ft 494 kts 229°
2026-04-20 14:31 27.26817 64.49871 35845 ft 494 kts 229°
2026-04-20 14:32 27.22012 64.44338 35845 ft 495 kts 229°
2026-04-20 14:32 27.17203 64.38806 35843 ft 495 kts 229°
2026-04-20 14:33 27.12388 64.33275 35834 ft 495 kts 229°
2026-04-20 14:33 27.07573 64.27751 35849 ft 495 kts 229°
2026-04-20 14:34 27.02756 64.22232 35836 ft 495 kts 228°
2026-04-20 14:34 26.97976 64.16761 35847 ft 494 kts 228°
2026-04-20 14:35 26.93242 64.11184 35850 ft 493 kts 231°
2026-04-20 14:35 26.88710 64.05433 35851 ft 492 kts 231°
2026-04-20 14:36 26.84203 63.99664 35850 ft 492 kts 231°
2026-04-20 14:36 26.79677 63.93911 35849 ft 493 kts 231°
2026-04-20 14:37 26.75133 63.88167 35847 ft 493 kts 231°
2026-04-20 14:37 26.70584 63.82430 35853 ft 493 kts 231°
2026-04-20 14:38 26.66032 63.76695 35853 ft 493 kts 231°
2026-04-20 14:38 26.61474 63.70960 35842 ft 493 kts 231°
2026-04-20 14:39 26.56911 63.65225 35856 ft 494 kts 231°
2026-04-20 14:39 26.52342 63.59489 35861 ft 495 kts 231°
2026-04-20 14:40 26.47762 63.53747 35860 ft 495 kts 231°
2026-04-20 14:40 26.43180 63.48009 35864 ft 495 kts 231°
2026-04-20 14:41 26.38596 63.42278 35850 ft 495 kts 231°
2026-04-20 14:41 26.34008 63.36549 35856 ft 495 kts 231°
2026-04-20 14:42 26.29414 63.30819 35855 ft 496 kts 231°
2026-04-20 14:42 26.24844 63.25126 35860 ft 496 kts 230°
2026-04-20 14:43 26.20236 63.19393 35850 ft 497 kts 230°
2026-04-20 14:43 26.15623 63.13662 35851 ft 497 kts 230°
2026-04-20 14:44 26.11004 63.07930 35848 ft 498 kts 231°
2026-04-20 14:44 26.06368 63.02183 35843 ft 500 kts 231°
2026-04-20 14:45 26.01719 62.96427 35836 ft 501 kts 231°
2026-04-20 14:45 25.97051 62.90651 36081 ft 504 kts 231°
2026-04-20 14:46 25.94714 62.87757 36457 ft 502 kts 231°
2026-04-20 14:46 25.92388 62.84876 36843 ft 500 kts 231°
2026-04-20 14:46 25.90065 62.82001 37188 ft 500 kts 231°
2026-04-20 14:46 25.87740 62.79122 37428 ft 501 kts 231°
2026-04-20 14:47 25.85410 62.76240 37699 ft 502 kts 231°
2026-04-20 14:47 25.83071 62.73349 37771 ft 505 kts 231°
2026-04-20 14:48 25.76043 62.64676 37812 ft 501 kts 231°
2026-04-20 14:48 25.71392 62.58947 37825 ft 499 kts 231°
2026-04-20 14:49 25.66756 62.53242 37837 ft 498 kts 231°
2026-04-20 14:49 25.62117 62.47539 37830 ft 498 kts 231°
2026-04-20 14:50 25.57468 62.41830 37828 ft 499 kts 231°
2026-04-20 14:50 25.52808 62.36117 37837 ft 501 kts 231°
2026-04-20 14:51 25.48127 62.30385 37840 ft 503 kts 231°
2026-04-20 14:51 25.43427 62.24638 37836 ft 504 kts 231°
2026-04-20 14:52 25.38717 62.18885 37837 ft 505 kts 231°
2026-04-20 14:52 25.34002 62.13133 37832 ft 505 kts 231°
2026-04-20 14:53 25.29289 62.07391 37828 ft 504 kts 231°
2026-04-20 14:53 25.24580 62.01662 37829 ft 503 kts 231°
2026-04-20 14:54 25.19910 61.95985 37819 ft 502 kts 231°
2026-04-20 14:54 25.15212 61.90281 37829 ft 502 kts 231°
2026-04-20 14:55 25.10517 61.84588 37827 ft 501 kts 231°
2026-04-20 14:55 25.06297 61.78531 37836 ft 496 kts 241°
2026-04-20 14:56 25.03139 61.71828 37836 ft 491 kts 250°
2026-04-20 14:56 25.00415 61.64929 37841 ft 491 kts 250°
2026-04-20 14:57 24.98125 61.59203 37831 ft 492 kts 250°
2026-04-20 14:57 24.95329 61.52324 37834 ft 492 kts 249°
2026-04-20 14:58 24.92525 61.45441 37836 ft 492 kts 250°
2026-04-20 14:58 24.89759 61.38540 37837 ft 493 kts 250°
2026-04-20 14:59 24.87002 61.31636 37834 ft 492 kts 250°
2026-04-20 14:59 24.84243 61.24750 37835 ft 491 kts 249°
2026-04-20 15:00 24.81482 61.17882 37837 ft 490 kts 249°
2026-04-20 15:00 24.78728 61.11039 37837 ft 489 kts 249°
2026-04-20 15:01 24.75973 61.04208 37825 ft 488 kts 249°
2026-04-20 15:01 24.73227 60.97404 37830 ft 486 kts 249°
2026-04-20 15:02 24.70482 60.90623 37820 ft 485 kts 249°
2026-04-20 15:02 24.67626 60.83911 37834 ft 485 kts 248°
2026-04-20 15:03 24.64724 60.77224 37831 ft 485 kts 248°
2026-04-20 15:03 24.61840 60.70532 37839 ft 484 kts 247°
2026-04-20 15:04 24.58966 60.63847 37823 ft 483 kts 247°
2026-04-20 15:04 24.56082 60.57180 37824 ft 483 kts 247°
2026-04-20 15:05 24.53185 60.50524 37828 ft 483 kts 247°
2026-04-20 15:05 24.50290 60.43876 37844 ft 482 kts 246°
2026-04-20 15:06 24.47400 60.37246 37835 ft 480 kts 246°
2026-04-20 15:06 24.44518 60.30641 37833 ft 479 kts 246°
2026-04-20 15:07 24.41640 60.24053 37817 ft 478 kts 246°
2026-04-20 15:07 24.38763 60.17477 37838 ft 478 kts 246°
2026-04-20 15:08 24.35888 60.10916 37831 ft 477 kts 246°
2026-04-20 15:08 24.33011 60.04363 37833 ft 477 kts 246°
2026-04-20 15:09 24.30133 59.97817 37833 ft 477 kts 246°
2026-04-20 15:09 24.27272 59.91317 37834 ft 477 kts 246°
2026-04-20 15:10 24.24388 59.84773 37835 ft 477 kts 247°
2026-04-20 15:10 24.21501 59.78229 37832 ft 477 kts 247°
2026-04-20 15:11 24.18611 59.71688 37833 ft 477 kts 247°
2026-04-20 15:11 24.15717 59.65150 37829 ft 477 kts 247°
2026-04-20 15:12 24.12821 59.58613 37828 ft 477 kts 248°
2026-04-20 15:12 24.09919 59.52070 37835 ft 478 kts 248°
2026-04-20 15:13 24.07005 59.45526 37832 ft 479 kts 247°
2026-04-20 15:13 24.04081 59.38977 37834 ft 479 kts 247°
2026-04-20 15:14 24.01152 59.32424 37836 ft 480 kts 247°
2026-04-20 15:14 23.98228 59.25864 37833 ft 480 kts 248°
2026-04-20 15:15 23.95302 59.19301 37832 ft 479 kts 249°
2026-04-20 15:15 23.94172 59.15924 37829 ft 470 kts 263°
2026-04-20 15:15 23.93864 59.12414 37841 ft 462 kts 275°
2026-04-20 15:15 23.94233 59.08951 37834 ft 457 kts 287°
2026-04-20 15:16 23.95228 59.05686 37854 ft 452 kts 293°
2026-04-20 15:16 23.97411 58.99221 37838 ft 454 kts 293°
2026-04-20 15:17 23.99545 58.92718 37831 ft 455 kts 292°
2026-04-20 15:17 24.01643 58.86191 37841 ft 455 kts 292°
2026-04-20 15:18 24.03732 58.79652 37831 ft 455 kts 292°
2026-04-20 15:18 24.05816 58.73122 37836 ft 455 kts 292°
2026-04-20 15:19 24.07897 58.66595 37837 ft 454 kts 292°
2026-04-20 15:19 24.09974 58.60073 37834 ft 454 kts 292°
2026-04-20 15:20 24.12045 58.53551 37833 ft 453 kts 292°
2026-04-20 15:20 24.14107 58.47034 37833 ft 453 kts 292°
2026-04-20 15:21 24.16155 58.40547 37841 ft 449 kts 292°
2026-04-20 15:21 24.18191 58.34092 37829 ft 447 kts 292°
2026-04-20 15:22 24.20217 58.27658 37832 ft 446 kts 292°
2026-04-20 15:22 24.22234 58.21240 37834 ft 446 kts 292°
2026-04-20 15:23 24.24246 58.14828 37834 ft 445 kts 291°
2026-04-20 15:23 24.26238 58.08470 37833 ft 444 kts 291°
2026-04-20 15:24 24.28238 58.02077 37835 ft 443 kts 291°
2026-04-20 15:24 24.30233 57.95688 37832 ft 443 kts 291°
2026-04-20 15:25 24.32223 57.89304 37848 ft 442 kts 291°
2026-04-20 15:25 24.34205 57.82934 37833 ft 441 kts 291°
2026-04-20 15:26 24.36180 57.76579 37833 ft 440 kts 291°
2026-04-20 15:26 24.38148 57.70233 37831 ft 439 kts 291°
2026-04-20 15:27 24.40112 57.63889 37838 ft 439 kts 291°
2026-04-20 15:27 24.42068 57.57563 37826 ft 437 kts 291°
2026-04-20 15:28 24.44013 57.51263 37828 ft 435 kts 291°
2026-04-20 15:28 24.45952 57.44982 37831 ft 434 kts 291°
2026-04-20 15:29 24.47887 57.38712 37832 ft 433 kts 291°
2026-04-20 15:29 24.49822 57.32431 37165 ft 442 kts 291°
2026-04-20 15:29 24.50807 57.29232 36477 ft 442 kts 291°
2026-04-20 15:30 24.51789 57.26035 35692 ft 442 kts 290°
2026-04-20 15:30 24.52776 57.22821 34776 ft 447 kts 290°
2026-04-20 15:30 24.53774 57.19568 33887 ft 452 kts 289°
2026-04-20 15:30 24.54782 57.16277 32876 ft 458 kts 289°
2026-04-20 15:31 24.55800 57.12951 31909 ft 462 kts 288°
2026-04-20 15:31 24.56827 57.09590 30983 ft 465 kts 288°
2026-04-20 15:31 24.57853 57.06232 30292 ft 463 kts 288°
2026-04-20 15:31 24.58860 57.02932 29547 ft 461 kts 287°
2026-04-20 15:32 24.59875 56.99602 28794 ft 458 kts 287°
2026-04-20 15:32 24.60883 56.96295 28099 ft 454 kts 288°
2026-04-20 15:32 24.61880 56.93021 27452 ft 450 kts 288°
2026-04-20 15:32 24.62868 56.89774 26791 ft 446 kts 288°
2026-04-20 15:33 24.63868 56.86563 26149 ft 443 kts 290°
2026-04-20 15:33 24.65077 56.83464 25504 ft 439 kts 295°
2026-04-20 15:33 24.66549 56.80532 24873 ft 437 kts 300°
2026-04-20 15:33 24.68137 56.77701 24229 ft 434 kts 301°
2026-04-20 15:34 24.69713 56.74885 23600 ft 431 kts 301°
2026-04-20 15:34 24.71273 56.72081 22892 ft 429 kts 301°
2026-04-20 15:34 24.72817 56.69291 22235 ft 425 kts 300°
2026-04-20 15:34 24.74341 56.66525 21599 ft 421 kts 300°
2026-04-20 15:35 24.75849 56.63781 20985 ft 417 kts 300°
2026-04-20 15:35 24.77339 56.61066 20391 ft 414 kts 300°
2026-04-20 15:35 24.78822 56.58360 19794 ft 412 kts 301°
2026-04-20 15:35 24.80296 56.55670 19204 ft 410 kts 301°
2026-04-20 15:36 24.81764 56.52991 18591 ft 408 kts 301°
2026-04-20 15:36 24.83229 56.50316 17960 ft 407 kts 301°
2026-04-20 15:36 24.84688 56.47650 17310 ft 406 kts 301°
2026-04-20 15:36 24.86138 56.44999 16696 ft 403 kts 301°
2026-04-20 15:37 24.87410 56.42291 16085 ft 397 kts 291°
2026-04-20 15:37 24.88153 56.39375 15505 ft 396 kts 282°
2026-04-20 15:37 24.88452 56.36372 14907 ft 395 kts 272°
2026-04-20 15:37 24.88289 56.33357 14317 ft 394 kts 267°
2026-04-20 15:38 24.88081 56.30356 13718 ft 393 kts 268°
2026-04-20 15:38 24.88076 56.27393 13182 ft 381 kts 279°
2026-04-20 15:38 24.88610 56.24616 13143 ft 362 kts 288°
2026-04-20 15:38 24.89467 56.22052 12804 ft 352 kts 297°
2026-04-20 15:39 24.90644 56.19702 12275 ft 350 kts 301°
2026-04-20 15:39 24.91863 56.17383 11681 ft 350 kts 301°
2026-04-20 15:39 24.93076 56.15056 11147 ft 350 kts 301°
2026-04-20 15:39 24.94274 56.12730 10657 ft 349 kts 301°
2026-04-20 15:40 24.95461 56.10408 10268 ft 346 kts 301°
2026-04-20 15:40 24.96656 56.08066 10104 ft 353 kts 301°
2026-04-20 15:40 24.97929 56.05840 10055 ft 345 kts 309°
2026-04-20 15:40 24.99535 56.03837 10062 ft 344 kts 315°
2026-04-20 15:41 25.01185 56.01971 10059 ft 345 kts 315°
2026-04-20 15:41 25.02842 56.00056 10053 ft 345 kts 314°
2026-04-20 15:41 25.04474 55.98110 10047 ft 346 kts 314°
2026-04-20 15:41 25.06093 55.96151 10048 ft 346 kts 313°
2026-04-20 15:42 25.07703 55.94184 10050 ft 345 kts 313°
2026-04-20 15:42 25.09306 55.92213 10049 ft 345 kts 313°
2026-04-20 15:42 25.10909 55.90241 10049 ft 345 kts 313°
2026-04-20 15:42 25.12512 55.88272 10044 ft 345 kts 313°
2026-04-20 15:43 25.14112 55.86307 10041 ft 340 kts 313°
2026-04-20 15:43 25.15649 55.84402 10026 ft 324 kts 311°
2026-04-20 15:43 25.16913 55.82422 10038 ft 308 kts 303°
2026-04-20 15:43 25.17980 55.80432 10024 ft 294 kts 302°
2026-04-20 15:44 25.18656 55.79159 10011 ft 286 kts 301°
2026-04-20 15:44 25.19386 55.77115 9663 ft 283 kts 283°
2026-04-20 15:44 25.19733 55.74965 9219 ft 286 kts 282°
2026-04-20 15:44 25.20083 55.72830 8819 ft 287 kts 282°
2026-04-20 15:45 25.20445 55.70668 8489 ft 286 kts 282°
2026-04-20 15:45 25.20809 55.68518 8167 ft 284 kts 282°
2026-04-20 15:45 25.21169 55.66408 8092 ft 276 kts 282°
2026-04-20 15:45 25.21527 55.64321 8049 ft 279 kts 282°
2026-04-20 15:46 25.21887 55.62231 8037 ft 272 kts 282°
2026-04-20 15:46 25.22232 55.60228 8025 ft 259 kts 282°
2026-04-20 15:46 25.22559 55.58325 8020 ft 245 kts 282°
2026-04-20 15:46 25.22871 55.56509 8025 ft 240 kts 282°
2026-04-20 15:47 25.23166 55.54682 8013 ft 242 kts 278°
2026-04-20 15:47 25.23262 55.52833 7850 ft 241 kts 273°
2026-04-20 15:47 25.23286 55.50986 7571 ft 240 kts 272°
2026-04-20 15:47 25.23306 55.49152 7317 ft 237 kts 273°
2026-04-20 15:48 25.23333 55.47337 7040 ft 236 kts 273°
2026-04-20 15:48 25.23366 55.45523 6750 ft 236 kts 274°
2026-04-20 15:48 25.23402 55.43713 6462 ft 236 kts 274°
2026-04-20 15:48 25.23441 55.41910 6197 ft 234 kts 274°
2026-04-20 15:49 25.23482 55.40114 5893 ft 234 kts 274°
2026-04-20 15:49 25.23524 55.38318 5599 ft 234 kts 274°
2026-04-20 15:49 25.23566 55.36526 5320 ft 233 kts 274°
2026-04-20 15:49 25.23608 55.34746 5117 ft 228 kts 274°
2026-04-20 15:50 25.23648 55.33022 5068 ft 224 kts 274°
2026-04-20 15:50 25.23862 55.31308 5053 ft 228 kts 287°
2026-04-20 15:50 25.24305 55.29605 5055 ft 232 kts 289°
2026-04-20 15:50 25.24766 55.27903 5047 ft 231 kts 288°
2026-04-20 15:51 25.25211 55.26206 5031 ft 229 kts 288°
2026-04-20 15:51 25.25643 55.24517 5029 ft 228 kts 288°
2026-04-20 15:51 25.26067 55.22838 5029 ft 226 kts 288°
2026-04-20 15:51 25.26480 55.21190 5031 ft 225 kts 288°
2026-04-20 15:52 25.26909 55.19502 5033 ft 224 kts 291°
2026-04-20 15:52 25.27595 55.17989 5045 ft 225 kts 304°
2026-04-20 15:52 25.28463 55.16523 5048 ft 229 kts 305°
2026-04-20 15:53 25.30196 55.13583 5031 ft 227 kts 304°
2026-04-20 15:53 25.31040 55.12118 5032 ft 225 kts 304°
2026-04-20 15:53 25.31875 55.10657 5033 ft 224 kts 304°
2026-04-20 15:53 25.32706 55.09199 5030 ft 224 kts 304°
2026-04-20 15:54 25.33533 55.07747 5033 ft 224 kts 304°
2026-04-20 15:54 25.34362 55.06290 5042 ft 224 kts 304°
2026-04-20 15:54 25.35194 55.04825 5045 ft 226 kts 304°
2026-04-20 15:54 25.36030 55.03353 5044 ft 227 kts 304°
2026-04-20 15:55 25.36868 55.01875 4982 ft 227 kts 304°
2026-04-20 15:55 25.37706 55.00399 4759 ft 226 kts 304°
2026-04-20 15:55 25.38543 54.98927 4460 ft 226 kts 304°
2026-04-20 15:55 25.39373 54.97467 4246 ft 221 kts 304°
2026-04-20 15:56 25.40235 54.96094 3998 ft 211 kts 319°
2026-04-20 15:56 25.41496 54.95404 3906 ft 205 kts 353°
2026-04-20 15:56 25.42926 54.95490 3850 ft 208 kts 15°
2026-04-20 15:56 25.43563 54.95759 3789 ft 209 kts 25°
2026-04-20 15:57 25.44360 54.96341 3780 ft 205 kts 46°
2026-04-20 15:58 25.44960 54.97757 3803 ft 216 kts 84°
2026-04-20 15:58 25.44757 54.99466 3796 ft 230 kts 106°
2026-04-20 15:58 25.44189 55.01127 3805 ft 233 kts 110°
2026-04-20 15:58 25.43548 55.02788 3789 ft 236 kts 111°
2026-04-20 15:59 25.42892 55.04457 3788 ft 237 kts 111°
2026-04-20 15:59 25.42235 55.06129 3797 ft 237 kts 111°
2026-04-20 15:59 25.41592 55.07774 3816 ft 234 kts 111°
2026-04-20 15:59 25.40948 55.09430 4235 ft 227 kts 113°
2026-04-20 16:00 25.40342 55.10997 4449 ft 223 kts 113°
2026-04-20 16:00 25.39732 55.12581 4673 ft 225 kts 113°
2026-04-20 16:00 25.39117 55.14183 4915 ft 227 kts 113°
2026-04-20 16:00 25.38497 55.15801 5095 ft 231 kts 113°
2026-04-20 16:01 25.37869 55.17442 5142 ft 231 kts 113°
2026-04-20 16:01 25.37246 55.19070 5192 ft 230 kts 113°
2026-04-20 16:01 25.36600 55.20758 5208 ft 246 kts 113°
2026-04-20 16:01 25.35926 55.22521 5205 ft 250 kts 113°
2026-04-20 16:02 25.35248 55.24295 5201 ft 251 kts 113°
2026-04-20 16:02 25.34570 55.26067 5194 ft 250 kts 113°
2026-04-20 16:02 25.33893 55.27837 5191 ft 250 kts 113°
2026-04-20 16:02 25.33218 55.29604 5190 ft 249 kts 113°
2026-04-20 16:03 25.32543 55.31368 5190 ft 249 kts 113°
2026-04-20 16:03 25.31869 55.33128 5193 ft 249 kts 113°
2026-04-20 16:03 25.31196 55.34887 5193 ft 247 kts 113°
2026-04-20 16:03 25.30537 55.36607 5093 ft 240 kts 113°
2026-04-20 16:04 25.29898 55.38277 4992 ft 231 kts 113°
2026-04-20 16:04 25.29278 55.39894 4935 ft 229 kts 113°
2026-04-20 16:04 25.28656 55.41515 4885 ft 229 kts 113°
2026-04-20 16:04 25.28037 55.43130 4839 ft 228 kts 113°
2026-04-20 16:05 25.27420 55.44738 4786 ft 227 kts 113°
2026-04-20 16:05 25.26807 55.46337 4734 ft 226 kts 113°
2026-04-20 16:05 25.26196 55.47928 4680 ft 224 kts 113°
2026-04-20 16:05 25.25588 55.49511 4634 ft 224 kts 113°
2026-04-20 16:06 25.24980 55.51091 4597 ft 223 kts 113°
2026-04-20 16:06 25.24374 55.52667 4561 ft 223 kts 113°
2026-04-20 16:06 25.23717 55.54217 4496 ft 222 kts 120°
2026-04-20 16:06 25.22905 55.55671 4456 ft 223 kts 123°
2026-04-20 16:07 25.22081 55.57106 4411 ft 225 kts 122°
2026-04-20 16:07 25.21248 55.58575 4348 ft 226 kts 122°
2026-04-20 16:07 25.20414 55.60056 4317 ft 228 kts 122°
2026-04-20 16:07 25.19579 55.61546 4261 ft 229 kts 122°
2026-04-20 16:08 25.18742 55.63043 4222 ft 229 kts 122°
2026-04-20 16:08 25.17906 55.64541 4165 ft 229 kts 122°
2026-04-20 16:08 25.17072 55.66038 4108 ft 229 kts 122°
2026-04-20 16:08 25.16242 55.67527 4061 ft 227 kts 122°
2026-04-20 16:09 25.15415 55.69011 3999 ft 226 kts 122°
2026-04-20 16:09 25.14593 55.70484 3963 ft 225 kts 122°
2026-04-20 16:09 25.13581 55.71794 3456 ft 229 kts 153°
2026-04-20 16:09 25.12086 55.72064 3267 ft 221 kts 195°
2026-04-20 16:10 25.10679 55.71464 3220 ft 214 kts 202°
2026-04-20 16:10 25.09302 55.70861 3058 ft 211 kts 208°
2026-04-20 16:10 25.08259 55.69786 2979 ft 208 kts 243°
2026-04-20 16:10 25.07984 55.68243 2941 ft 210 kts 280°
2026-04-20 16:11 25.08534 55.66778 2909 ft 207 kts 301°
2026-04-20 16:11 25.09272 55.65400 2844 ft 209 kts 300°
2026-04-20 16:11 25.10013 55.64024 2766 ft 207 kts 301°
2026-04-20 16:11 25.10756 55.62672 2720 ft 205 kts 301°
2026-04-20 16:12 25.11500 55.61330 2698 ft 205 kts 301°
2026-04-20 16:12 25.12247 55.59984 2702 ft 207 kts 301°
2026-04-20 16:12 25.13002 55.58622 2695 ft 209 kts 301°
2026-04-20 16:12 25.13761 55.57253 2700 ft 209 kts 301°
2026-04-20 16:13 25.14520 55.55883 2694 ft 208 kts 301°
2026-04-20 16:13 25.15257 55.54555 2689 ft 197 kts 301°
2026-04-20 16:13 25.15951 55.53302 2702 ft 188 kts 301°
2026-04-20 16:13 25.16627 55.52081 2650 ft 187 kts 301°
2026-04-20 16:14 25.17315 55.50838 2379 ft 190 kts 301°
2026-04-20 16:14 25.18001 55.49599 2130 ft 188 kts 301°
2026-04-20 16:14 25.18680 55.48373 1875 ft 186 kts 301°
2026-04-20 16:14 25.19350 55.47163 1630 ft 182 kts 301°
2026-04-20 16:15 25.19983 55.46020 1414 ft 166 kts 301°
2026-04-20 16:15 25.20556 55.44985 1185 ft 150 kts 301°
2026-04-20 16:15 25.21092 55.44016 1025 ft 148 kts 301°
2026-04-20 16:15 25.21629 55.43037 787 ft 149 kts 300°
2026-04-20 16:16 25.22155 55.42065 574 ft 146 kts 301°
2026-04-20 16:16 25.22678 55.41120 386 ft 147 kts 301°
2026-04-20 16:16 25.23209 55.40160 215 ft 146 kts 301°
2026-04-20 16:16 25.23743 55.39204 50 ft 147 kts 301°
2026-04-20 16:17 25.24246 55.38306 27 ft 125 kts 302°
2026-04-20 16:17 25.24642 55.37593 27 ft 90 kts 301°
2026-04-20 16:17 25.24912 55.37105 27 ft 61 kts 301°
2026-04-20 16:17 25.25018 55.36783 27 ft 36 kts 272°
2026-04-20 16:18 25.25023 55.36593 27 ft 16 kts 271°
2026-04-20 16:18 25.25034 55.36468 27 ft 16 kts 282°
2026-04-20 16:18 25.25073 55.36348 27 ft 16 kts 295°
2026-04-20 16:18 25.25134 55.36240 27 ft 17 kts 300°
2026-04-20 16:19 25.25182 55.36143 27 ft 13 kts 293°
2026-04-20 16:19 25.25198 55.36047 27 ft 13 kts 273°
2026-04-20 16:19 25.25168 55.35983 27 ft 10 kts 218°
2026-04-20 16:19 25.25123 55.35945 27 ft 7 kts 214°
2026-04-20 16:20 25.25095 55.35928 26 ft 2 kts 211°
2026-04-20 16:20 25.25091 55.35925 27 ft 0 kts 211°